Morrisville, VT

11:26 AM EST on December 09, 2019 (GMT -0500)
Morrisville Stowe State

Weather History for KMVL - August, 2019

Change the Weather History Date:

Tuesday, August 6, 2019

  Actual Average Record
Temperature  
Mean Temperature 66 °F 67 °F  
Max Temperature 85 °F 79 °F 92 °F (2018)
Min Temperature 47 °F 55 °F 43 °F (2004)
Degree Days  
Heating Degree Days 0 2  
Month to date heating degree days 8 7  
Since 1 June heating degree days 161 160  
Since 1 July heating degree days 18 37  
Cooling Degree Days 1 3  
Month to date cooling degree days 2 18  
Year to date cooling degree days 184 186  
Since 1 June cooling degree days 183 178  
Growing Degree Days 16 (Base 50)    
Moisture  
Dew Point 58 °F    
Average Humidity 72    
Maximum Humidity 96    
Minimum Humidity 47    
Precipitation  
Precipitation 0.02 in 0.14 in 1.10 in (2008)
Month to date precipitation 0.02 0.89  
Year to date precipitation 23.46 20.62  
Sea Level Pressure  
Sea Level Pressure 29.85 in    
Wind  
Wind Speed 5 mph (South)    
Max Wind Speed 16 mph    
Max Gust Speed 23 mph    
Visibility 10 miles    
Events Rain    
T = Trace of Precipitation, MM = Missing Value Source: NWS Daily Summary

Daily Weather History Graph

Daily Weather History Graph

Search for Another Location

Airport or City:

Astronomy

Aug. 06, 2019 Rise Set
Actual Time 5:42 AM EDT 8:09 PM EDT
Civil Twilight 5:09 AM EDT 8:42 PM EDT
Nautical Twilight 4:28 AM EDT 9:22 PM EDT
Astronomical Twilight 3:42 AM EDT 10:08 PM EDT
Moon 12:19 PM EDT (8/6) 11:36 PM EDT (8/6)
Length of Visible Light 15h 32m
Length of Day
14h 26m
Waxing Crescent, 38% of the Moon is Illuminated
Aug 6
Waxing Crescent
Aug 7
First Quarter
Aug 15
Full
Aug 23
Last Quarter
Aug 30
New

Hourly Weather History & Observations

Time (EDT) Temp. Heat Index Dew Point Humidity Pressure Visibility Wind Dir Wind Speed Gust Speed Precip Events Conditions
12:54 AM 53.1 °F - 51.1 °F 93% 29.94 in 10.0 mi Calm Calm - N/A   Clear
1:54 AM 53.1 °F - 51.1 °F 93% 29.93 in 10.0 mi Calm Calm - N/A   Clear
2:54 AM 52.0 °F - 50.0 °F 93% 29.92 in 10.0 mi Calm Calm - N/A   Clear
3:54 AM 51.1 °F - 48.9 °F 92% 29.92 in 5.0 mi Calm Calm - N/A   Clear
4:54 AM 48.9 °F - 46.9 °F 93% 29.92 in 10.0 mi Calm Calm - N/A   Clear
5:54 AM 48.0 °F - 46.9 °F 96% 29.93 in 10.0 mi Calm Calm - N/A   Clear
6:54 AM 51.1 °F - 50.0 °F 96% 29.92 in 5.0 mi South 3.5 mph - N/A   Clear
7:54 AM 57.9 °F - 55.0 °F 90% 29.92 in 10.0 mi SSE 5.8 mph - N/A   Clear
8:54 AM 66.9 °F - 57.0 °F 70% 29.91 in 10.0 mi South 8.1 mph - N/A   Clear
9:54 AM 72.0 °F - 59.0 °F 64% 29.89 in 10.0 mi South 4.6 mph - N/A   Clear
10:54 AM 75.9 °F - 59.0 °F 56% 29.86 in 10.0 mi SE 6.9 mph - N/A   Clear
11:54 AM 80.1 °F 80.7 °F 59.0 °F 48% 29.84 in 10.0 mi SSW 9.2 mph - N/A   Clear
12:54 PM 82.0 °F 82.7 °F 61.0 °F 49% 29.82 in 10.0 mi SSW 9.2 mph 18.4 mph N/A   Clear
1:54 PM 82.9 °F 83.3 °F 61.0 °F 47% 29.80 in 10.0 mi SSE 8.1 mph 18.4 mph N/A   Clear
2:54 PM 84.9 °F 85.4 °F 62.1 °F 46% 29.78 in 10.0 mi SSW 9.2 mph - N/A   Partly Cloudy
3:54 PM 82.0 °F 83.0 °F 62.1 °F 51% 29.76 in 10.0 mi SSE 13.8 mph 18.4 mph N/A   Partly Cloudy
4:54 PM 81.0 °F 81.9 °F 62.1 °F 52% 29.77 in 10.0 mi South 6.9 mph - 0.00 in   Overcast
5:54 PM 81.0 °F 82.5 °F 64.0 °F 56% 29.76 in 10.0 mi SW 6.9 mph - 0.00 in   Mostly Cloudy
6:54 PM 77.0 °F - 64.0 °F 64% 29.77 in 10.0 mi SSW 3.5 mph - N/A   Mostly Cloudy
7:54 PM 70.0 °F - 66.0 °F 87% 29.80 in 10.0 mi SSW 11.5 mph 18.4 mph 0.01 in   Partly Cloudy
8:54 PM 66.9 °F - 63.0 °F 87% 29.80 in 10.0 mi South 6.9 mph - 0.00 in Rain Light Rain
9:54 PM 64.9 °F - 63.0 °F 93% 29.81 in 10.0 mi South 8.1 mph - 0.01 in   Scattered Clouds
10:54 PM 64.9 °F - 63.0 °F 93% 29.80 in 10.0 mi SSE 4.6 mph - N/A   Clear
11:54 PM 64.0 °F - 62.1 °F 93% 29.81 in 10.0 mi SSE 3.5 mph - N/A   Mostly Cloudy